Regional Weather Roundup
Issued by NWS

Home | Current Version | Previous Version | Graphics & Text | Print | Product List | Glossary On
Versions: 1 2 3 4 5 6 7 8 9 10 11 12 13 14 15 16 17 18 19 20 21 22 23 24 25 26 27 28 29 30 31 32 33 34 35 36 37 38 39 40 41 42 43 44 45 46 47 48 49 50
000
ASUS45 KABQ 190810
RWRNM
NEW MEXICO REGIONAL WEATHER ROUNDUP
NATIONAL WEATHER SERVICE ALBUQUERQUE NM
200 AM MDT TUE SEP 19 2017

NOTE: "FAIR" MEANS FEW OR NO CLOUDS BELOW 12,000 FEET AGL WITH NO
       SIGNIFICANT WEATHER OR OBSTRUCTIONS TO VISION.

      THIS PRODUCT IS RELEASED AS TWO VERSIONS.  ONE VERSION NEAR
      THE TOP OF THE HOUR CONTAINING PRELIMINARY DATA FROM ALBUQUERQUE
      AND OTHER STATIONS.  A FINAL VERSION WITH ADDITIONAL DATA IS
      ISSUED ABOUT 10 MINUTES AFTER THE HOUR.

NMZ501-503-504-510>518-190900-
NORTHWEST PLATEAU/NORTHCENTRAL MOUNTAINS

CITY           SKY/WX    TMP DP  RH WIND       PRES   REMARKS
FARMINGTON     FAIR      49  30  48 NE6       30.03F
LOS ALAMOS     FAIR      63  18  17 CALM      30.17R
SANTA FE       FAIR      51  32  48 E7        30.12R
TAOS           FAIR      44  26  49 SE3       30.18R
ANGEL FIRE     FAIR      32  27  82 CALM      30.22S

$$
NMZ402-403-502-505>509-190900-
WESTCENTRAL MOUNTAINS/SOUTHWEST MOUNTAINS

CITY           SKY/WX    TMP DP  RH WIND       PRES   REMARKS
GALLUP         FAIR      54  17  23 S10       30.15F
GRANTS         FAIR      44  19  36 CALM      30.19S
SILVER CITY    MOCLDY    59  35  41 NW10      30.12S

$$
NMZ407-409-411-412-190900-
SOUTHERN DESERTS

CITY           SKY/WX    TMP DP  RH WIND       PRES   REMARKS
DEMING         FAIR      64  48  56 W3        30.07R
LAS CRUCES     FAIR      71  49  46 SW6       30.07S
HOLLOMAN AFB   FAIR      69  45  41 SE6       30.03S
ALAMOGORDO     FAIR      64  41  42 E6        30.03S
T OR C         FAIR      68  34  28 W8        30.06R

$$
NMZ519>523-190900-
CENTRAL VALLEYS/CENTRAL HIGHLANDS

CITY           SKY/WX    TMP DP  RH WIND       PRES   REMARKS
ALBUQUERQUE    FAIR      61  28  28 SE7       30.09R
MORIARTY ARPT  FAIR      52  36  54 N3        30.13S
CLINES CORNERS FAIR      52  26  36 W15       30.16S
BELEN          FAIR      60  23  23 S3        30.08R
SOCORRO        FAIR      57  27  31 CALM      30.05S

$$
NMZ524>526-539-540-190900-
SOUTHCENTRAL MOUNTAINS

CITY           SKY/WX    TMP DP  RH WIND       PRES   REMARKS
RUIDOSO        FAIR      59  30  33 SW6       30.20S

$$
NMZ527>531-190900-
NORTHEAST HIGHLANDS/NORTHEAST PLAINS

CITY           SKY/WX    TMP DP  RH WIND       PRES   REMARKS
LAS VEGAS      FAIR      51  32  48 SW9       30.11S
RATON          FAIR      48  35  60 NE3       30.03F
CLAYTON        FAIR      58  38  47 W10       29.95F

$$
NMZ532>537-190900-
EASTCENTRAL PLAINS

CITY           SKY/WX    TMP DP  RH WIND       PRES   REMARKS
SANTA ROSA     FAIR      62  38  40 SW7       29.98F
TUCUMCARI      FAIR      66  45  46 SW10      29.90F
CANNON AFB     CLEAR     62  62 100 S8        29.99S
CLOVIS AIRPORT FAIR      60  57  89 S6        29.99S

$$
NMZ028-029-538-190900-
SOUTHEAST PLAINS

CITY           SKY/WX    TMP DP  RH WIND       PRES   REMARKS
ROSWELL        FAIR      68  41  37 E3        29.94S
ARTESIA        FAIR      73  41  31 VRB5      29.96R
CARLSBAD       FAIR      69  53  56 SE6       29.93F
HOBBS          FAIR      73  63  68 S13       29.98S


$$




USA.gov is the U.S. government's official web portal to all federal, state and local government web resources and services.